DW6963 Weather Reports


Display with metric or nautical units.
time (UTC)temp
F
wind
direction
speed
MPH
gust
MPH
rain 1hr
in
rain 24hr
in
rain mn
in
humidity
%
barometer
mb
20260906052004 70 0 0.0 0.0 0.00 0.00 0.00 91 1013.9
20260906051503 70 0 0.0 0.0 0.00 0.00 0.00 92 1014.0
20260906051003 70 0 0.0 0.0 0.00 0.00 0.00 92 1014.0
20260906050503 70 0 0.0 0.0 0.00 0.00 0.00 92 1013.9
20260906050004 70 0 0.0 0.0 0.00 0.00 0.00 91 1013.9
20260906045504 71 0 0.0 0.0 0.00 0.00 0.00 91 1013.8
20260906045003 71 0 0.0 0.0 0.00 0.00 0.00 91 1013.8
20260906044503 71 0 0.0 0.0 0.00 0.00 0.00 91 1013.7
20260906044003 71 0 0.0 0.0 0.00 0.00 0.00 92 1013.7
20260906043004 71 0 0.0 0.0 0.00 0.00 0.00 92 1013.5
20260906042503 71 0 0.0 0.0 0.00 0.00 0.00 92 1013.4
20260906042003 71 0 0.0 0.0 0.00 0.00 0.00 91 1013.4
20260906041503 71 0 0.0 0.0 0.00 0.00 0.00 91 1013.4
20260906041003 71 0 0.0 0.0 0.00 0.00 0.00 91 1013.4
20260906040503 71 0 0.0 0.0 0.00 0.00 0.00 91 1013.5
20260906040008 72 0 0.0 0.0 0.00 0.00 0.00 91 1013.4
20260906035504 72 0 0.0 0.0 0.00 0.00 0.00 91 1013.3
20260906035004 72 0 0.0 0.0 0.00 0.00 0.00 92 1013.4
20260906034503 72 0 0.0 0.0 0.00 0.00 0.00 92 1013.5
20260906034004 72 0 0.0 0.0 0.00 0.00 0.00 92 1013.5
20260906033504 72 0 0.0 0.0 0.00 0.00 0.00 92 1013.5
20260906032504 72 0 0.0 0.0 0.00 0.00 0.00 92 1013.6
20260906032004 72 0 0.0 0.0 0.00 0.00 0.00 92 1013.6
20260906031503 72 0 0.0 0.0 0.00 0.00 0.00 91 1013.4
20260906031004 72 0 0.0 0.0 0.00 0.00 0.00 92 1013.4
20260906030504 72 0 0.0 0.0 0.00 0.00 0.00 92 1013.6
20260906030003 72 0 0.0 0.0 0.00 0.00 0.00 92 1013.6
20260906024503 71 0 0.0 0.0 0.00 0.00 0.00 92 1013.7
20260906024004 71 0 0.0 0.0 0.00 0.00 0.00 92 1013.7
20260906023503 71 0 0.0 0.0 0.00 0.00 0.00 92 1013.8
20260906023004 71 0 0.0 0.0 0.00 0.00 0.00 92 1013.7
20260906022003 71 0 0.0 0.0 0.00 0.00 0.00 91 1013.6
20260906021503 70 0 0.0 0.0 0.00 0.00 0.00 91 1013.6
20260906021004 70 0 0.0 0.0 0.00 0.00 0.00 91 1013.6
20260906020004 70 0 0.0 0.0 0.00 0.00 0.00 91 1013.6
20260906015503 70 0 0.0 0.0 0.00 0.00 0.00 91 1013.7
20260906015004 70 0 0.0 0.0 0.00 0.00 0.00 91 1013.7
20260906014503 70 0 0.0 0.0 0.00 0.00 0.00 91 1013.8
20260906014004 70 0 0.0 0.0 0.00 0.00 0.00 90 1013.8
20260906013504 70 0 0.0 0.0 0.00 0.00 0.00 90 1013.6
20260906013003 70 0 0.0 0.0 0.00 0.00 0.00 90 1013.6
20260906012503 70 0 0.0 0.0 0.00 0.00 0.00 90 1013.4
20260906012003 70 0 0.0 0.0 0.00 0.00 0.00 90 1013.4
20260906011504 70 0 0.0 0.0 0.00 0.00 0.00 90 1013.3
20260906011004 70 0 0.0 0.0 0.00 0.00 0.00 90 1013.2
20260906010503 70 0 0.0 0.0 0.00 0.00 0.00 90 1013.2
20260906010004 70 0 0.0 0.0 0.00 0.00 0.00 90 1013.1
20260906005503 70 0 0.0 0.0 0.00 0.00 0.00 90 1013.0
20260906005004 70 0 0.0 0.0 0.00 0.00 0.00 89 1013.0
20260906004503 70 0 0.0 0.0 0.00 0.00 0.00 89 1012.9
20260906004003 70 0 0.0 0.0 0.00 0.00 0.00 89 1012.6
20260906003504 70 0 0.0 0.0 0.00 0.00 0.00 88 1012.6
20260906003004 70 0 0.0 0.0 0.00 0.00 0.00 88 1012.5
20260906002503 71 0 0.0 0.0 0.00 0.00 0.00 88 1012.6
20260906002004 71 0 0.0 0.0 0.00 0.00 0.00 87 1012.5
20260906001503 71 0 0.0 0.0 0.00 0.00 0.00 86 1012.3
20260906001004 72 0 0.0 0.0 0.00 0.00 0.00 86 1012.4
20260906000503 72 0 0.0 0.0 0.00 0.00 0.00 85 1012.5
20260906000004 73 0 0.0 0.0 0.00 0.00 0.00 83 1012.6
20260905235504 74 0 0.0 0.0 0.00 0.00 0.00 80 1012.7
20260905235003 74 0 0.0 0.0 0.00 0.00 0.00 78 1012.8
20260905234504 74 0 0.0 0.0 0.00 0.00 0.00 77 1012.7
20260905233004 79 0 0.0 0.0 0.00 0.00 0.00 76 1014.1
20260905232503 80 0 0.0 0.0 0.00 0.00 0.00 80 1013.1
20260905232004 81 0 0.0 0.0 0.00 0.00 0.00 80 1012.4
20260905231504 81 0 0.0 0.0 0.00 0.00 0.00 80 1012.3
20260905231003 81 0 0.0 0.0 0.00 0.00 0.00 79 1012.4
20260905230003 81 0 0.0 0.0 0.00 0.00 0.00 78 1012.2
20260905224953 81 0 0.0 0.0 0.00 0.00 0.00 77 1012.5
20260905224453 82 0 0.0 0.0 0.00 0.00 0.00 77 1012.4
20260905223452 82 0 0.0 0.0 0.00 0.00 0.00 75 1012.6
20260905222952 83 0 0.0 0.0 0.00 0.00 0.00 75 1012.7
20260905222453 83 0 0.0 0.0 0.00 0.00 0.00 74 1012.6
20260905221952 83 0 0.0 0.0 0.00 0.00 0.00 74 1012.5
20260905221452 84 0 0.0 0.0 0.00 0.00 0.00 73 1012.3
20260905220952 84 0 0.0 0.0 0.00 0.00 0.00 73 1012.1
20260905220453 84 0 0.0 0.0 0.00 0.00 0.00 72 1012.0
20260905205452 87 0 0.0 0.0 0.00 0.00 0.00 67 1012.6
20260905204952 87 0 0.0 0.0 0.00 0.00 0.00 67 1012.6
20260905204452 87 0 0.0 0.0 0.00 0.00 0.00 67 1012.5
20260905203953 87 0 0.0 0.0 0.00 0.00 0.00 67 1012.5
20260905203453 86 0 0.0 0.0 0.00 0.00 0.00 67 1012.5
20260905202953 86 0 0.0 0.0 0.00 0.00 0.00 68 1012.5
20260905202452 86 0 0.0 0.0 0.00 0.00 0.00 67 1012.4
20260905201953 86 0 0.0 0.0 0.00 0.00 0.00 68 1012.4
20260905201452 86 0 0.0 0.0 0.00 0.00 0.00 67 1012.5
20260905200953 86 0 0.0 0.0 0.00 0.00 0.00 69 1012.6
20260905195953 86 0 0.0 0.0 0.00 0.00 0.00 68 1012.9
20260905195452 86 0 0.0 0.0 0.00 0.00 0.00 66 1013.1
20260905194953 86 0 0.0 0.0 0.00 0.00 0.00 66 1013.3
20260905194452 86 0 0.0 0.0 0.00 0.00 0.00 67 1013.2
20260905193953 85 0 0.0 0.0 0.00 0.00 0.00 67 1013.4
20260905193453 86 0 0.0 0.0 0.00 0.00 0.00 68 1013.4
20260905192952 86 0 0.0 0.0 0.00 0.00 0.00 66 1013.4
20260905192453 85 0 0.0 0.0 0.00 0.00 0.00 68 1013.4
20260905191952 85 0 0.0 0.0 0.00 0.00 0.00 67 1013.5
20260905191452 85 0 0.0 0.0 0.00 0.00 0.00 69 1013.5
20260905190953 84 0 0.0 0.0 0.00 0.00 0.00 67 1013.6
20260905190452 84 0 0.0 0.0 0.00 0.00 0.00 69 1013.7
20260905185952 84 0 0.0 0.0 0.00 0.00 0.00 71 1013.8
20260905185453 84 0 0.0 0.0 0.00 0.00 0.00 69 1013.9
20260905184953 84 0 0.0 0.0 0.00 0.00 0.00 69 1013.9
20260905184452 83 0 0.0 0.0 0.00 0.00 0.00 70 1013.9
20260905183952 83 0 0.0 0.0 0.00 0.00 0.00 71 1014.1
20260905183453 83 0 0.0 0.0 0.00 0.00 0.00 69 1014.1
20260905182952 83 0 0.0 0.0 0.00 0.00 0.00 70 1014.2
20260905182452 83 0 0.0 0.0 0.00 0.00 0.00 69 1014.3
20260905181953 83 0 0.0 0.0 0.00 0.00 0.00 69 1014.2
20260905181452 83 0 0.0 0.0 0.00 0.00 0.00 69 1014.1
20260905180952 83 0 0.0 0.0 0.00 0.00 0.00 70 1014.1
20260905175952 83 0 0.0 0.0 0.00 0.00 0.00 69 1014.0
20260905175453 83 0 0.0 0.0 0.00 0.00 0.00 68 1014.3
20260905173952 84 0 0.0 0.0 0.00 0.00 0.00 68 1013.9
20260905173453 83 0 0.0 0.0 0.00 0.00 0.00 70 1014.0
20260905172953 83 0 0.0 0.0 0.00 0.00 0.00 71 1014.1
20260905172452 83 0 0.0 0.0 0.00 0.00 0.00 71 1014.3
20260905171953 83 0 0.0 0.0 0.00 0.00 0.00 71 1014.1
20260905171453 82 0 0.0 0.0 0.00 0.00 0.00 73 1014.0
20260905170452 82 0 0.0 0.0 0.00 0.00 0.00 74 1014.0
20260905165953 82 0 0.0 0.0 0.00 0.00 0.00 71 1014.1
20260905165453 82 0 0.0 0.0 0.00 0.00 0.00 73 1014.1
20260905164952 81 0 0.0 0.0 0.00 0.00 0.00 74 1014.3
20260905164452 81 0 0.0 0.0 0.00 0.00 0.00 73 1014.2
20260905163953 80 0 0.0 0.0 0.00 0.00 0.00 73 1014.2
20260905163453 80 0 0.0 0.0 0.00 0.00 0.00 73 1014.2
20260905162952 80 0 0.0 0.0 0.00 0.00 0.00 75 1014.1
20260905162452 80 0 0.0 0.0 0.00 0.00 0.00 74 1014.1
20260905161952 80 0 0.0 0.0 0.00 0.00 0.00 73 1014.1
20260905161453 80 0 0.0 0.0 0.00 0.00 0.00 76 1014.1
20260905160952 80 0 0.0 0.0 0.00 0.00 0.00 77 1014.1
20260905155953 79 0 0.0 0.0 0.00 0.00 0.00 77 1014.2
20260905155452 79 0 0.0 0.0 0.00 0.00 0.00 77 1014.5
20260905154453 78 0 0.0 0.0 0.00 0.00 0.00 78 1014.4
20260905153953 78 0 0.0 0.0 0.00 0.00 0.00 77 1014.3
20260905152953 77 0 0.0 0.0 0.00 0.00 0.00 80 1014.4
20260905152453 77 0 0.0 0.0 0.00 0.00 0.00 81 1014.4
20260905151952 76 0 0.0 0.0 0.00 0.00 0.00 82 1014.3
20260905150952 76 0 0.0 0.0 0.00 0.00 0.00 82 1014.2
20260905150453 75 0 0.0 0.0 0.00 0.00 0.00 82 1014.0
20260905145952 75 0 0.0 0.0 0.00 0.00 0.00 84 1014.1
20260905145452 75 0 0.0 0.0 0.00 0.00 0.00 83 1014.4
20260905144952 74 0 0.0 0.0 0.00 0.00 0.00 83 1014.3
20260905144453 74 0 0.0 0.0 0.00 0.00 0.00 84 1014.5
20260905143953 74 0 0.0 0.0 0.00 0.00 0.00 85 1014.5
20260905143453 74 0 0.0 0.0 0.00 0.00 0.00 87 1014.4
20260905142952 73 0 0.0 0.0 0.00 0.00 0.00 87 1014.4
20260905142453 73 0 0.0 0.0 0.00 0.00 0.00 87 1013.2
20260905141953 72 0 0.0 0.0 0.00 0.00 0.00 88 1012.7
20260905140953 72 0 0.0 0.0 0.00 0.00 0.00 89 1012.9
20260905135952 71 0 0.0 0.0 0.00 0.00 0.00 89 1012.4
20260905135452 70 0 0.0 0.0 0.00 0.00 0.00 89 1012.6
20260905134452 70 0 0.0 0.0 0.00 0.00 0.00 90 1013.2
20260905133953 70 0 0.0 0.0 0.00 0.00 0.00 90 1013.6
20260905133453 70 0 0.0 0.0 0.00 0.00 0.00 90 1014.0
20260905132453 70 0 0.0 0.0 0.00 0.00 0.00 90 1014.0
20260905131452 69 0 0.0 0.0 0.00 0.00 0.00 90 1014.4
20260905130953 69 0 0.0 0.0 0.00 0.00 0.00 90 1014.6
20260905125953 69 0 0.0 0.0 0.00 0.00 0.00 90 1015.2
20260905125452 69 0 0.0 0.0 0.00 0.00 0.00 90 1015.4
20260905124953 69 0 0.0 0.0 0.00 0.00 0.00 90 1015.6
20260905124453 68 0 0.0 0.0 0.00 0.00 0.00 90 1015.4
20260905123952 68 0 0.0 0.0 0.00 0.00 0.00 89 1015.5
20260905123453 68 0 0.0 0.0 0.00 0.00 0.00 89 1015.4
20260905122953 68 0 0.0 0.0 0.00 0.00 0.00 89 1015.5
20260905122453 68 0 0.0 0.0 0.00 0.00 0.00 90 1015.8
20260905121953 68 0 0.0 0.0 0.00 0.00 0.00 90 1015.8
20260905121452 68 0 0.0 0.0 0.00 0.00 0.00 90 1015.6
20260905120953 68 0 0.0 0.0 0.00 0.00 0.00 90 1015.6
20260905120453 68 0 0.0 0.0 0.00 0.00 0.00 90 1015.4
20260905115953 68 0 0.0 0.0 0.00 0.00 0.00 90 1015.2
20260905115452 68 0 0.0 0.0 0.00 0.00 0.00 90 1015.4
20260905114953 68 0 0.0 0.0 0.00 0.00 0.00 90 1015.7
20260905114453 68 0 0.0 0.0 0.00 0.00 0.00 90 1015.6
20260905113453 68 0 0.0 0.0 0.00 0.00 0.00 90 1015.7
20260905112953 68 0 0.0 0.0 0.00 0.00 0.00 90 1015.9
20260905112452 67 0 0.0 0.0 0.00 0.00 0.00 90 1015.9
20260905111953 67 0 0.0 0.0 0.00 0.00 0.00 90 1016.0
20260905111453 67 0 0.0 0.0 0.00 0.00 0.00 90 1015.8
20260905110453 67 0 0.0 0.0 0.00 0.00 0.00 90 1015.8
20260905105953 67 0 0.0 0.0 0.00 0.00 0.00 90 1015.7
20260905105452 67 0 0.0 0.0 0.00 0.00 0.00 90 1015.8
20260905104953 67 0 0.0 0.0 0.00 0.00 0.00 90 1015.9
20260905104453 67 0 0.0 0.0 0.00 0.00 0.00 89 1016.0
20260905103952 67 0 0.0 0.0 0.00 0.00 0.00 89 1016.3
20260905103453 67 0 0.0 0.0 0.00 0.00 0.00 89 1016.2
20260905102953 67 0 0.0 0.0 0.00 0.00 0.00 89 1016.1
20260905102453 67 0 0.0 0.0 0.00 0.00 0.00 89 1016.2
20260905101952 67 0 0.0 0.0 0.00 0.00 0.00 88 1016.1
20260905101452 68 0 0.0 0.0 0.00 0.00 0.00 88 1016.1
20260905100953 68 0 0.0 0.0 0.00 0.00 0.00 86 1016.3
20260905095953 69 0 0.0 0.0 0.00 0.00 0.00 86 1016.2
20260905095453 69 0 0.0 0.0 0.00 0.00 0.00 87 1016.1
20260905094453 70 0 0.0 0.0 0.00 0.00 0.00 91 1016.0
20260905093952 70 0 0.0 0.0 0.00 0.00 0.00 92 1015.7
20260905093453 70 0 0.0 0.0 0.00 0.00 0.00 92 1015.4
20260905092953 70 0 0.0 0.0 0.00 0.00 0.00 92 1014.1
20260905092452 70 0 0.0 0.0 0.00 0.00 0.00 92 1014.0
20260905091953 69 0 0.0 0.0 0.00 0.00 0.00 92 1013.9
20260905091453 69 0 0.0 0.0 0.00 0.00 0.00 92 1013.7
20260905090953 69 0 0.0 0.0 0.00 0.00 0.00 92 1013.7
20260905085953 69 0 0.0 0.0 0.00 0.00 0.00 92 1013.5
20260905085452 69 0 0.0 0.0 0.00 0.00 0.00 92 1013.3
20260905084953 70 0 0.0 0.0 0.00 0.00 0.00 92 1013.2
20260905084453 69 0 0.0 0.0 0.00 0.00 0.00 92 1013.2
20260905083953 69 0 0.0 0.0 0.00 0.00 0.00 92 1013.3
20260905083452 69 0 0.0 0.0 0.00 0.00 0.00 92 1013.4
20260905082953 69 0 0.0 0.0 0.00 0.00 0.00 92 1013.5
20260905082453 69 0 0.0 0.0 0.00 0.00 0.00 92 1013.5
20260905081953 69 0 0.0 0.0 0.00 0.00 0.00 92 1013.5
20260905081453 69 0 0.0 0.0 0.00 0.00 0.00 92 1013.5
20260905080953 69 0 0.0 0.0 0.00 0.00 0.00 92 1013.5
20260905080452 69 0 0.0 0.0 0.00 0.00 0.00 92 1013.4
20260905075953 69 0 0.0 0.0 0.00 0.00 0.00 92 1013.3
20260905075452 69 0 0.0 0.0 0.00 0.00 0.00 92 1013.4
20260905074952 69 0 0.0 0.0 0.00 0.00 0.00 92 1013.3
20260905073953 69 0 0.0 0.0 0.00 0.00 0.00 92 1013.4
20260905073453 69 0 0.0 0.0 0.00 0.00 0.00 92 1013.4
20260905072453 70 0 0.0 0.0 0.00 0.00 0.00 92 1013.3
20260905071953 69 0 0.0 0.0 0.00 0.00 0.00 92 1013.3
20260905071453 70 0 0.0 0.0 0.00 0.00 0.00 92 1013.3
20260905070953 70 0 0.0 0.0 0.00 0.00 0.00 92 1013.2
20260905070453 70 0 0.0 0.0 0.00 0.00 0.00 92 1013.2
20260905065953 70 0 0.0 0.0 0.00 0.00 0.00 92 1013.2
20260905065453 70 0 0.0 0.0 0.00 0.00 0.00 92 1013.3
20260905064953 70 0 0.0 0.0 0.00 0.00 0.00 92 1013.3
20260905064453 70 0 0.0 0.0 0.00 0.00 0.00 92 1013.6
20260905063953 70 0 0.0 0.0 0.00 0.00 0.00 92 1013.6
20260905063453 70 0 0.0 0.0 0.00 0.00 0.00 92 1013.6
20260905062953 70 0 0.0 0.0 0.00 0.00 0.00 92 1013.7
20260905062452 70 0 0.0 0.0 0.00 0.00 0.00 92 1013.7
20260905061952 70 0 0.0 0.0 0.00 0.00 0.00 92 1013.8
20260905061453 70 0 0.0 0.0 0.00 0.00 0.00 92 1014.0
20260905060953 70 0 0.0 0.0 0.00 0.00 0.00 92 1014.0
20260905055453 71 0 0.0 0.0 0.00 0.00 0.00 92 1014.4
20260905054952 71 0 0.0 0.0 0.00 0.00 0.00 92 1014.4
20260905054453 71 0 0.0 0.0 0.00 0.00 0.00 92 1014.4
20260905053953 71 0 0.0 0.0 0.00 0.00 0.00 92 1014.4
20260905053453 71 0 0.0 0.0 0.00 0.00 0.00 92 1014.5
20260905052453 70 0 0.0 0.0 0.00 0.00 0.00 92 1014.5